This is the latest recevied weather packets stored in our database for station/object KP4CRN. If no packets are shown the sender has not sent any weather packets the latest 10 day(s).
| Time | Temp. | Humidity | Pressure | Rain* | Wind** | Luminosity | Snow |
|---|---|---|---|---|---|---|---|
| 1777329821 | 27.78° C | 85% | 1015.7 hPa | 0 mm | - | 2 W/m² | - |
| 1777329519 | 27.78° C | 85% | 1015.8 hPa | 0 mm | - | 4 W/m² | - |
| 1777329217 | 27.78° C | 84% | 1015.8 hPa | 0 mm | - | 6 W/m² | - |
| 1777328914 | 28.33° C | 84% | 1015.7 hPa | 0 mm | - | 10 W/m² | - |
| 1777328612 | 28.33° C | 84% | 1015.6 hPa | 0 mm | - | 16 W/m² | - |
| 1777328310 | 28.33° C | 83% | 1015.5 hPa | 0 mm | - | 24 W/m² | - |
| 1777328008 | 28.33° C | 83% | 1015.5 hPa | 0 mm | - | 39 W/m² | - |
| 1777327706 | 28.33° C | 83% | 1015.5 hPa | 0 mm | - | 44 W/m² | - |
| 1777327403 | 28.33° C | 84% | 1015.4 hPa | 0 mm | - | 49 W/m² | - |
| 1777327101 | 28.89° C | 83% | 1015.5 hPa | 0 mm | - | 57 W/m² | - |
| 1777326796 | 28.89° C | 82% | 1015.3 hPa | 0 mm | - | 66 W/m² | - |
| 1777326494 | 28.89° C | 81% | 1015.3 hPa | 0 mm | - | 76 W/m² | - |
| 1777326191 | 28.89° C | 81% | 1015.1 hPa | 0 mm | - | 96 W/m² | - |
| 1777325890 | 28.89° C | 80% | 1015 hPa | 0 mm | - | 93 W/m² | - |
| 1777325588 | 28.89° C | 81% | 1015 hPa | 0 mm | - | 141 W/m² | - |
| 1777325285 | 28.89° C | 82% | 1014.8 hPa | 0 mm | - | 105 W/m² | - |
| 1777324983 | 28.89° C | 81% | 1015.1 hPa | 0 mm | - | 87 W/m² | - |
| 1777324679 | 28.89° C | 81% | 1015 hPa | 0 mm | - | 89 W/m² | - |
| 1777324377 | 29.44° C | 83% | 1014.6 hPa | 0 mm | - | 116 W/m² | - |
| 1777324074 | 30° C | 83% | 1014.9 hPa | 0 mm | - | 214 W/m² | - |
| 1777323770 | 29.44° C | 83% | 1014.9 hPa | 0 mm | - | 233 W/m² | - |
| 1777323462 | 29.44° C | 83% | 1014.9 hPa | 0 mm | - | 276 W/m² | - |
| 1777323160 | 29.44° C | 83% | 1014.8 hPa | 0 mm | - | 324 W/m² | - |
| 1777322858 | 28.89° C | 84% | 1014.8 hPa | 0 mm | - | 299 W/m² | - |
| 1777322556 | 28.33° C | 86% | 1014.9 hPa | 0 mm | - | 254 W/m² | - |
* Rain latest hour (hover to see other rain measurements)
** Current wind speed in m/s (hover to see current wind gust speed)